Location: Waco, TX
(31.5480°N, 97.1670°W)
Time: 05:04:34
(UTC-06:00)

ISS - Pass Details

Date: 10 November 2017
Orbit: 402 x 407 km, 51.6° (Epoch: 23 November)

Event Time Altitude Azimuth Distance (km) Brightness Sun altitude
Rises 00:12:21 0° 196° (SSW) 2,302 - -75.7°
Reaches altitude 10° 00:14:44 10° 180° (S) 1,446 - -75.7°
Maximum altitude 00:17:15 21° 128° (SE) 960 - -75.6°
Drops below altitude 10° 00:19:47 10° 77° (ENE) 1,451 - -75.6°
Sets 00:22:11 0° 60° (ENE) 2,312 - -75.5°
